Location: Armidale
(30.5016°S, 151.6662°E)
Time: 03:17:08
(UTC+10:00)

N. Korean satellite - Visible Passes

Search period start: 15 May 2021 00:00
Search period end: 25 May 2021 00:00
Orbit: 450 x 501 km, 97.2° (Epoch: 13 May)

Date Brightness Start Highest point End Pass type
(mag) Time Alt. Az. Time Alt. Az. Time Alt. Az.
15 May 8.6 04:38:01 10° N 04:39:08 20° N 04:39:08 20° N visible
15 May 8.7 17:42:25 10° SSW 17:45:42 29° WSW 17:48:57 10° NW visible
16 May 9.4 04:11:15 10° NE 04:11:43 13° NE 04:11:43 13° NE visible
17 May 8.7 05:17:54 10° NW 05:18:27 13° NW 05:18:27 13° NW visible
18 May 8.5 04:49:58 10° N 04:51:02 19° N 04:51:02 19° N visible
18 May 9.3 17:54:43 10° SSW 17:57:32 20° WSW 18:00:18 10° WNW visible
19 May 9.1 04:22:50 10° NNE 04:23:36 16° NNE 04:23:36 16° NNE visible
19 May 7.7 17:26:57 10° S 17:30:34 48° WSW 17:34:06 10° NNW visible
21 May 8.6 05:02:01 10° NNW 05:02:54 16° NNW 05:02:54 16° NNW visible
21 May 9.6 18:07:14 10° SW 18:09:17 14° WSW 18:11:20 10° WNW visible
22 May 8.8 04:34:34 10° NNE 04:35:28 17° NNE 04:35:28 17° NNE visible
22 May 8.5 17:39:00 10° S 17:42:21 32° WSW 17:45:39 10° NW visible
23 May 9.7 04:07:50 10° NE 04:08:01 11° NE 04:08:01 11° NE visible
24 May 8.8 05:14:12 10° NNW 05:14:45 13° NW 05:14:45 13° NW visible
